Simultaneous Nadir Overpasses (SNOs) Predictions

Prediction of SNOs between METOP-A and NOAA-19 Satellite Orbit:

Table of predicted SNOs for the next 14.0 days since TLE Epoch: 10/9/2018
Index Date (METOP-A) Time (METOP-A) Lat,Lon (METOP-A) SZA (METOP-A ) Date (NOAA-19) Time (NOAA-19) Lat,Lon (NOAA-19) SZA (NOAA-19 ) Distance(km) Time Diff (sec)
1 10/19/2018 09:14:43 -79.09,-128.07 90.62 10/19/2018 09:13:31 -79.10,-129.56 90.69 31.32 72
2 10/19/2018 10:05:26 78.99, 38.59 89.27 10/19/2018 10:04:23 78.99, 38.61 89.26 0.60 63
3 10/19/2018 10:56:07 -79.00,-154.04 90.71 10/19/2018 10:55:28 -78.97,-154.02 90.75 3.17 39
4 10/19/2018 11:46:48 78.97, 13.11 89.27 10/19/2018 11:46:24 78.99, 13.11 89.28 1.96 24
5 10/19/2018 12:37:29 -78.97,-179.53 90.72 10/19/2018 12:37:29 -78.97,-179.51 90.72 0.83 0
6 10/19/2018 13:28:09 78.98, -12.13 89.31 10/19/2018 13:28:24 78.95, -12.13 89.29 3.49 15
7 10/19/2018 14:18:51 -78.95, 154.99 90.72 10/19/2018 14:19:30 -78.97, 154.99 90.70 1.56 39
8 10/19/2018 15:09:31 78.96, -37.61 89.31 10/19/2018 15:10:25 78.95, -37.62 89.31 1.17 54
9 10/19/2018 16:00:17 -78.78, 128.56 90.91 10/19/2018 16:01:27 -78.83, 130.50 90.76 42.41 70




NCC Satellite Simultaneous Nadir Overpasses (SNOs) Prediction Service
